Location: Marion Hill
(40.7303°N, 80.2959°W)
Time: 08:33:59
(UTC+00:00)

Meteor 2-10 Rocket - Pass Details

Date: 29 October 2020
Orbit: 733 x 885 km, 81.2° (Epoch: 28 November)

Event Time Altitude Azimuth Distance (km) Brightness Sun altitude
Rises 22:50:03 0° 160° (SSE) 3,308 6.7 -6.2°
Reaches altitude 10° 22:52:43 10° 149° (SSE) 2,356 5.9 -6.7°
Maximum altitude 22:57:13 29° 91° (E) 1,390 4.3 -7.6°
Drops below altitude 10° 23:01:37 10° 32° (NNE) 2,293 5.6 -8.4°
Sets 23:04:10 0° 22° (NNE) 3,205 6.4 -8.9°
